768  
SXUS52 KCHS 240527  
OSOCHS  
 
MARINE OBSERVATIONS  
NATIONAL WEATHER SERVICE CHARLESTON SC  
100 AM EDT TUE OCT 24 2017  
   
..DOWNTOWN CHARLESTON AND HARBOR
 
 
 
CITY SKY/WX TMP DP RH WIND PRES REMARKS  
WATERFRONT PRK NOT AVBL  
   
..LAKE MOULTRIE
 
 
 
CITY SKY/WX TMP DP RH WIND PRES REMARKS  
PINOPOLIS N/A 70 68 94 SW7 29.79F  
   
..LAKE AND SUPPLEMENTAL COASTAL OBSERVATIONS
 
 
 
STATION/POSITION TIME TEMP WIND PRES WAVE SWELL  
AIR SEA DIR/SP/G HT/PER HT/PER/DIR  
(UTC) (F) (DEG/KT/KT) (MB) (FT/S) (FT/S/D)  
FORT PULASKI 0500 72 74 310/ 9/ 11 1012.4  
SAPELO ISLAND NOT AVBL  
WINYAH BAY 0445 70 300/ 5 1010.0F  
LAKE MURRAY 0450 64 250/ 10/ 15 1010.8F  
ACE BASIN NERRS 0445 68 CALM 1012.0S  
 
   
..C-MAN AND BUOY OBSERVATIONS
 
 
 
STATION/POSITION TIME TEMP WIND PRES WAVE SWELL  
AIR SEA DIR/SP/G HT/PER HT/PER/DIR  
(UTC) (F) (DEG/KT/KT) (MB) (FT/S) (FT/S/D)  
BUOY 41004 0510 77 80 200/ 21/ 27 1010.5  
BUOY 41008 0450 76 77 220/ 17/ 21 1011.5F 5/ 7  
FOLLY BEACH CMAN 0500 71 290/ 5/ 8 1012.1F  
CAPERS NS BUOY 0508 68 74 300/ 12/ 17 1010.4F  
FRIPP NS BUOY 0508 73 310/ 8/ 14 N/A  
5E ST. MARYS GA 0500 77 N/A 4/ 7  
 
 
STATION/POSITION TIME TEMP WIND PRES WAVE SWELL  
AIR SEA DIR/SP/G HT/PER HT/PER/DIR  
(UTC) (F) (DEG/KT/KT) (MB) (FT/S) (FT/S/D)  
FRYING PAN BUOY 0510 80 78 180/ 25/ 33 1011.0  
BUOY 41025 0450 79 80 170/ 27/ 35 1013.4F 10/ 8  
CAPE LOOKOUT NC 0500 76 170/ 21/ 24 1013.3R  
BUOY 41002 0450 78 80 160/ 16/ 19 1016.3F 5/ 6 2/100/ 8  
BUOY 41010 NOT AVBL  
ST AUGUSTINE FL 0500 73 78 240/ 4/ 5 1013.1F  
 

 
 
 
CLICK HERE TO GO TO PREVIOUS BULLETINS.

The Nexlab SC Page
The Nexlab GA Page Main Text Page